| time (UTC) | temp F | wind direction | speed MPH | gust MPH | rain 1hr in | rain 24hr in | rain mn in | humidity % | barometer mb |
| 20260504050346 | 51 | 259 | 0.0 | 0.0 | 0.00 | 0.00 | 0.00 | 67 | 1015.9 |
| 20260504045843 | 51 | 259 | 0.0 | 0.0 | 0.00 | 0.00 | 0.00 | 65 | 1016.0 |
| 20260504045338 | 51 | 260 | 0.0 | 0.0 | 0.00 | 0.00 | 0.00 | 68 | 1016.1 |
| 20260504044835 | 51 | 259 | 0.0 | 0.0 | 0.00 | 0.00 | 0.00 | 66 | 1016.2 |
| 20260504044332 | 51 | 259 | 0.0 | 0.0 | 0.00 | 0.00 | 0.00 | 69 | 1016.0 |
| 20260504043830 | 51 | 259 | 0.0 | 0.0 | 0.00 | 0.00 | 0.00 | 64 | 1016.1 |
| 20260504043326 | 51 | 259 | 0.0 | 0.0 | 0.00 | 0.00 | 0.00 | 64 | 1016.1 |
| 20260504042824 | 51 | 259 | 0.0 | 0.0 | 0.00 | 0.00 | 0.00 | 64 | 1016.0 |
| 20260504042320 | 50 | 260 | 0.0 | 0.0 | 0.00 | 0.00 | 0.00 | 67 | 1016.0 |
| 20260504041816 | 50 | 260 | 0.0 | 1.0 | 0.00 | 0.00 | 0.00 | 71 | 1015.9 |
| 20260504041313 | 50 | 263 | 1.0 | 1.0 | 0.00 | 0.00 | 0.00 | 72 | 1016.0 |
| 20260504040809 | 50 | 276 | 1.0 | 2.0 | 0.00 | 0.00 | 0.00 | 71 | 1015.8 |
| 20260504040307 | 50 | 272 | 1.0 | 1.0 | 0.00 | 0.00 | 0.00 | 72 | 1015.9 |
| 20260504035802 | 50 | 260 | 0.0 | 0.0 | 0.00 | 0.00 | 0.00 | 71 | 1015.7 |
| 20260504035300 | 50 | 260 | 0.0 | 0.0 | 0.00 | 0.00 | 0.00 | 70 | 1015.6 |
| 20260504034757 | 50 | 260 | 0.0 | 0.0 | 0.00 | 0.00 | 0.00 | 70 | 1015.6 |
| 20260504034254 | 50 | 259 | 0.0 | 0.0 | 0.00 | 0.00 | 0.00 | 68 | 1015.5 |
| 20260504033752 | 50 | 260 | 0.0 | 0.0 | 0.00 | 0.00 | 0.00 | 65 | 1015.4 |
| 20260504033249 | 50 | 260 | 0.0 | 0.0 | 0.00 | 0.00 | 0.00 | 66 | 1015.7 |
| 20260504032746 | 50 | 266 | 0.0 | 0.0 | 0.00 | 0.00 | 0.00 | 72 | 1015.6 |
| 20260504032243 | 50 | 252 | 0.0 | 0.0 | 0.00 | 0.00 | 0.00 | 72 | 1015.5 |
| 20260504031739 | 50 | 252 | 0.0 | 0.0 | 0.00 | 0.00 | 0.00 | 72 | 1015.5 |
| 20260504031237 | 50 | 252 | 0.0 | 0.0 | 0.00 | 0.00 | 0.00 | 67 | 1015.5 |
| 20260504030732 | 50 | 264 | 0.0 | 0.0 | 0.00 | 0.00 | 0.00 | 69 | 1015.5 |
| 20260504030230 | 50 | 267 | 1.0 | 1.0 | 0.00 | 0.00 | 0.00 | 69 | 1015.4 |
| 20260504025726 | 50 | 266 | 0.0 | 0.0 | 0.00 | 0.00 | 0.00 | 73 | 1015.4 |
| 20260504025223 | 50 | 266 | 0.0 | 0.0 | 0.00 | 0.00 | 0.00 | 72 | 1015.4 |
| 20260504024720 | 50 | 266 | 0.0 | 0.0 | 0.00 | 0.00 | 0.00 | 72 | 1015.5 |
| 20260504024217 | 50 | 266 | 0.0 | 0.0 | 0.00 | 0.00 | 0.00 | 71 | 1015.5 |
| 20260504023714 | 50 | 260 | 0.0 | 0.0 | 0.00 | 0.00 | 0.00 | 69 | 1015.5 |
| 20260504023209 | 50 | 257 | 0.0 | 0.0 | 0.00 | 0.00 | 0.00 | 69 | 1015.4 |
| 20260504022706 | 51 | 257 | 0.0 | 0.0 | 0.00 | 0.00 | 0.00 | 70 | 1015.4 |
| 20260504022202 | 50 | 257 | 0.0 | 0.0 | 0.00 | 0.00 | 0.00 | 68 | 1015.4 |
| 20260504021700 | 51 | 257 | 0.0 | 0.0 | 0.00 | 0.00 | 0.00 | 67 | 1015.3 |
| 20260504021156 | 50 | 258 | 0.0 | 0.0 | 0.00 | 0.00 | 0.00 | 69 | 1015.2 |
| 20260504020653 | 51 | 257 | 0.0 | 0.0 | 0.00 | 0.00 | 0.00 | 70 | 1015.3 |
| 20260504020149 | 51 | 257 | 0.0 | 0.0 | 0.00 | 0.00 | 0.00 | 69 | 1015.4 |
| 20260504015646 | 51 | 262 | 0.0 | 1.0 | 0.00 | 0.00 | 0.00 | 70 | 1015.3 |
| 20260504015143 | 51 | 254 | 0.0 | 0.0 | 0.00 | 0.00 | 0.00 | 69 | 1015.3 |
| 20260504014638 | 51 | 253 | 0.0 | 0.0 | 0.00 | 0.00 | 0.00 | 68 | 1015.3 |
| 20260504014136 | 51 | 253 | 0.0 | 0.0 | 0.00 | 0.00 | 0.00 | 66 | 1015.4 |
| 20260504013633 | 51 | 253 | 0.0 | 0.0 | 0.00 | 0.00 | 0.00 | 66 | 1015.3 |
| 20260504013130 | 51 | 252 | 0.0 | 0.0 | 0.00 | 0.00 | 0.00 | 63 | 1015.2 |
| 20260504012627 | 51 | 252 | 0.0 | 0.0 | 0.00 | 0.00 | 0.00 | 62 | 1015.3 |
| 20260504012125 | 51 | 252 | 0.0 | 0.0 | 0.00 | 0.00 | 0.00 | 62 | 1015.2 |
| 20260504011622 | 52 | 246 | 0.0 | 0.0 | 0.00 | 0.00 | 0.00 | 63 | 1015.1 |
| 20260504011118 | 52 | 247 | 0.0 | 0.0 | 0.00 | 0.00 | 0.00 | 62 | 1015.2 |
| 20260504010614 | 53 | 240 | 0.0 | 0.0 | 0.00 | 0.00 | 0.00 | 63 | 1015.2 |
| 20260504010110 | 53 | 240 | 0.0 | 0.0 | 0.00 | 0.00 | 0.00 | 60 | 1015.1 |
| 20260504005607 | 54 | 240 | 0.0 | 0.0 | 0.00 | 0.00 | 0.00 | 57 | 1014.9 |
| 20260504005104 | 54 | 240 | 0.0 | 0.0 | 0.00 | 0.00 | 0.00 | 57 | 1014.9 |
| 20260504004602 | 54 | 240 | 0.0 | 0.0 | 0.00 | 0.00 | 0.00 | 55 | 1014.8 |
| 20260504004059 | 54 | 240 | 0.0 | 0.0 | 0.00 | 0.00 | 0.00 | 55 | 1014.8 |
| 20260504003555 | 55 | 240 | 0.0 | 0.0 | 0.00 | 0.00 | 0.00 | 56 | 1014.9 |
| 20260504003052 | 56 | 239 | 0.0 | 0.0 | 0.00 | 0.00 | 0.00 | 54 | 1014.8 |
| 20260504002549 | 57 | 240 | 0.0 | 0.0 | 0.00 | 0.00 | 0.00 | 50 | 1014.7 |
| 20260504002046 | 57 | 240 | 0.0 | 0.0 | 0.00 | 0.00 | 0.00 | 41 | 1014.6 |
| 20260504001544 | 57 | 235 | 0.0 | 0.0 | 0.00 | 0.00 | 0.00 | 37 | 1014.5 |
| 20260504001040 | 58 | 248 | 0.0 | 0.0 | 0.00 | 0.00 | 0.00 | 36 | 1014.5 |
| 20260504000537 | 59 | 252 | 0.0 | 0.0 | 0.00 | 0.00 | 0.00 | 34 | 1014.5 |
| 20260504000035 | 59 | 264 | 0.0 | 0.0 | 0.00 | 0.00 | 0.00 | 34 | 1014.5 |
| 20260503235533 | 59 | 239 | 0.0 | 0.0 | 0.00 | 0.00 | 0.00 | 34 | 1014.5 |
| 20260503235029 | 59 | 223 | 2.0 | 2.0 | 0.00 | 0.00 | 0.00 | 33 | 1014.4 |
| 20260503234527 | 60 | 247 | 0.0 | 0.0 | 0.00 | 0.00 | 0.00 | 32 | 1014.3 |
| 20260503234025 | 60 | 269 | 0.0 | 0.0 | 0.00 | 0.00 | 0.00 | 32 | 1014.2 |
| 20260503233521 | 61 | 242 | 0.0 | 0.0 | 0.00 | 0.00 | 0.00 | 32 | 1014.2 |
| 20260503233017 | 61 | 294 | 2.0 | 2.0 | 0.00 | 0.00 | 0.00 | 30 | 1014.1 |
| 20260503232514 | 61 | 343 | 5.0 | 6.0 | 0.00 | 0.00 | 0.00 | 30 | 1014.1 |
| 20260503232012 | 62 | 244 | 2.0 | 2.0 | 0.00 | 0.00 | 0.00 | 29 | 1014.0 |
| 20260503231509 | 62 | 259 | 3.0 | 3.0 | 0.00 | 0.00 | 0.00 | 29 | 1014.2 |
| 20260503231006 | 62 | 278 | 1.0 | 2.0 | 0.00 | 0.00 | 0.00 | 29 | 1014.1 |
| 20260503230502 | 62 | 250 | 4.0 | 7.0 | 0.00 | 0.00 | 0.00 | 29 | 1014.1 |
| 20260503230000 | 62 | 282 | 4.0 | 8.0 | 0.00 | 0.00 | 0.00 | 29 | 1014.3 |
| 20260503225457 | 62 | 295 | 7.0 | 9.0 | 0.00 | 0.00 | 0.00 | 28 | 1014.3 |
| 20260503224952 | 62 | 277 | 5.0 | 6.0 | 0.00 | 0.00 | 0.00 | 28 | 1014.3 |
| 20260503224449 | 63 | 281 | 5.0 | 8.0 | 0.00 | 0.00 | 0.00 | 28 | 1014.3 |
| 20260503223947 | 63 | 249 | 3.0 | 3.0 | 0.00 | 0.00 | 0.00 | 28 | 1014.2 |
| 20260503223445 | 63 | 297 | 3.0 | 3.0 | 0.00 | 0.00 | 0.00 | 28 | 1014.2 |
| 20260503222940 | 63 | 298 | 3.0 | 5.0 | 0.00 | 0.00 | 0.00 | 27 | 1014.1 |
| 20260503222439 | 63 | 338 | 7.0 | 9.0 | 0.00 | 0.00 | 0.00 | 27 | 1014.2 |
| 20260503221937 | 63 | 260 | 0.0 | 0.0 | 0.00 | 0.00 | 0.00 | 29 | 1014.3 |
| 20260503221435 | 63 | 315 | 5.0 | 6.0 | 0.00 | 0.00 | 0.00 | 27 | 1014.3 |
| 20260503220931 | 63 | 329 | 5.0 | 6.0 | 0.00 | 0.00 | 0.00 | 28 | 1014.4 |
| 20260503220428 | 63 | 258 | 3.0 | 5.0 | 0.00 | 0.00 | 0.00 | 26 | 1014.2 |
| 20260503215925 | 62 | 301 | 8.0 | 11.0 | 0.00 | 0.00 | 0.00 | 27 | 1014.2 |
| 20260503215422 | 62 | 68 | 1.0 | 2.0 | 0.00 | 0.00 | 0.00 | 27 | 1014.3 |
| 20260503214919 | 62 | 283 | 1.0 | 2.0 | 0.00 | 0.00 | 0.00 | 29 | 1014.2 |
| 20260503214417 | 62 | 336 | 7.0 | 9.0 | 0.00 | 0.00 | 0.00 | 27 | 1014.3 |
| 20260503213914 | 62 | 293 | 3.0 | 3.0 | 0.00 | 0.00 | 0.00 | 28 | 1014.3 |
| 20260503213412 | 62 | 260 | 7.0 | 8.0 | 0.00 | 0.00 | 0.00 | 27 | 1014.1 |
| 20260503212908 | 63 | 212 | 3.0 | 5.0 | 0.00 | 0.00 | 0.00 | 28 | 1014.3 |
| 20260503212406 | 63 | 263 | 4.0 | 5.0 | 0.00 | 0.00 | 0.00 | 28 | 1014.3 |
| 20260503211903 | 62 | 282 | 1.0 | 2.0 | 0.00 | 0.00 | 0.00 | 27 | 1014.1 |
| 20260503211359 | 62 | 279 | 1.0 | 2.0 | 0.00 | 0.00 | 0.00 | 27 | 1014.2 |
| 20260503210855 | 62 | 244 | 3.0 | 5.0 | 0.00 | 0.00 | 0.00 | 28 | 1014.2 |
| 20260503210353 | 62 | 253 | 3.0 | 6.0 | 0.00 | 0.00 | 0.00 | 33 | 1014.2 |
| 20260503205847 | 62 | 268 | 2.0 | 2.0 | 0.00 | 0.00 | 0.00 | 33 | 1014.0 |
| 20260503205344 | 62 | 270 | 4.0 | 6.0 | 0.00 | 0.00 | 0.00 | 31 | 1014.3 |
| 20260503204840 | 61 | 297 | 4.0 | 6.0 | 0.00 | 0.00 | 0.00 | 29 | 1014.3 |
| 20260503204338 | 62 | 343 | 5.0 | 7.0 | 0.00 | 0.00 | 0.00 | 29 | 1014.4 |
| 20260503203835 | 62 | 265 | 4.0 | 6.0 | 0.00 | 0.00 | 0.00 | 27 | 1014.5 |
| 20260503203332 | 61 | 225 | 4.0 | 7.0 | 0.00 | 0.00 | 0.00 | 28 | 1014.3 |
| 20260503202829 | 62 | 300 | 8.0 | 10.0 | 0.00 | 0.00 | 0.00 | 28 | 1014.3 |
| 20260503202327 | 61 | 295 | 7.0 | 10.0 | 0.00 | 0.00 | 0.00 | 29 | 1014.6 |
| 20260503201826 | 61 | 260 | 7.0 | 9.0 | 0.00 | 0.00 | 0.00 | 30 | 1014.6 |
| 20260503201322 | 61 | 247 | 6.0 | 8.0 | 0.00 | 0.00 | 0.00 | 32 | 1014.8 |
| 20260503200820 | 62 | 301 | 5.0 | 7.0 | 0.00 | 0.00 | 0.00 | 30 | 1014.8 |
| 20260503200315 | 61 | 275 | 5.0 | 8.0 | 0.00 | 0.00 | 0.00 | 30 | 1014.8 |
| 20260503195813 | 61 | 317 | 6.0 | 9.0 | 0.00 | 0.00 | 0.00 | 30 | 1014.9 |
| 20260503195309 | 61 | 280 | 9.0 | 11.0 | 0.00 | 0.00 | 0.00 | 29 | 1014.8 |
| 20260503194807 | 60 | 309 | 7.0 | 9.0 | 0.00 | 0.00 | 0.00 | 31 | 1015.1 |
| 20260503194302 | 61 | 303 | 5.0 | 7.0 | 0.00 | 0.00 | 0.00 | 31 | 1015.1 |
| 20260503193759 | 61 | 311 | 8.0 | 10.0 | 0.00 | 0.00 | 0.00 | 31 | 1015.1 |
| 20260503193255 | 60 | 313 | 2.0 | 3.0 | 0.00 | 0.00 | 0.00 | 32 | 1015.2 |
| 20260503192751 | 60 | 263 | 6.0 | 8.0 | 0.00 | 0.00 | 0.00 | 31 | 1015.2 |
| 20260503192246 | 60 | 242 | 8.0 | 10.0 | 0.00 | 0.00 | 0.00 | 31 | 1015.3 |
| 20260503191743 | 60 | 282 | 5.0 | 6.0 | 0.00 | 0.00 | 0.00 | 32 | 1015.5 |
| 20260503191240 | 60 | 282 | 4.0 | 6.0 | 0.00 | 0.00 | 0.00 | 31 | 1015.3 |
| 20260503190737 | 60 | 250 | 6.0 | 7.0 | 0.00 | 0.00 | 0.00 | 31 | 1015.6 |
| 20260503190234 | 60 | 1 | 4.0 | 5.0 | 0.00 | 0.00 | 0.00 | 33 | 1015.3 |
| 20260503185731 | 59 | 258 | 2.0 | 5.0 | 0.00 | 0.00 | 0.00 | 33 | 1015.3 |
| 20260503185226 | 59 | 275 | 5.0 | 6.0 | 0.00 | 0.00 | 0.00 | 32 | 1015.5 |
| 20260503184721 | 59 | 262 | 2.0 | 5.0 | 0.00 | 0.00 | 0.00 | 33 | 1015.7 |
| 20260503184218 | 58 | 288 | 5.0 | 7.0 | 0.00 | 0.00 | 0.00 | 31 | 1015.7 |
| 20260503183714 | 58 | 286 | 7.0 | 9.0 | 0.00 | 0.00 | 0.00 | 33 | 1015.9 |
| 20260503183211 | 58 | 295 | 4.0 | 6.0 | 0.00 | 0.00 | 0.00 | 32 | 1015.8 |
| 20260503182709 | 57 | 343 | 2.0 | 3.0 | 0.00 | 0.00 | 0.00 | 32 | 1015.7 |
| 20260503182208 | 57 | 282 | 2.0 | 3.0 | 0.00 | 0.00 | 0.00 | 33 | 1015.9 |
| 20260503181704 | 58 | 233 | 4.0 | 6.0 | 0.00 | 0.00 | 0.00 | 32 | 1016.0 |
| 20260503181201 | 58 | 282 | 7.0 | 11.0 | 0.00 | 0.00 | 0.00 | 31 | 1016.0 |
| 20260503180657 | 58 | 357 | 5.0 | 7.0 | 0.00 | 0.00 | 0.00 | 32 | 1015.9 |
| 20260503180156 | 57 | 253 | 1.0 | 2.0 | 0.00 | 0.00 | 0.00 | 33 | 1015.9 |
| 20260503175652 | 57 | 287 | 6.0 | 8.0 | 0.00 | 0.00 | 0.00 | 33 | 1015.9 |
| 20260503175150 | 57 | 287 | 6.0 | 8.0 | 0.00 | 0.00 | 0.00 | 33 | 1015.9 |
| 20260503174646 | 58 | 280 | 3.0 | 5.0 | 0.00 | 0.00 | 0.00 | 32 | 1016.2 |
| 20260503174143 | 58 | 312 | 9.0 | 11.0 | 0.00 | 0.00 | 0.00 | 32 | 1016.1 |
| 20260503173638 | 57 | 221 | 6.0 | 8.0 | 0.00 | 0.00 | 0.00 | 33 | 1016.2 |
| 20260503173135 | 57 | 333 | 7.0 | 9.0 | 0.00 | 0.00 | 0.00 | 34 | 1016.2 |
| 20260503172632 | 57 | 313 | 3.0 | 3.0 | 0.00 | 0.00 | 0.00 | 32 | 1016.2 |
| 20260503172130 | 56 | 253 | 4.0 | 6.0 | 0.00 | 0.00 | 0.00 | 33 | 1016.3 |
| 20260503171626 | 57 | 241 | 1.0 | 2.0 | 0.00 | 0.00 | 0.00 | 32 | 1016.2 |
| 20260503171123 | 56 | 342 | 7.0 | 8.0 | 0.00 | 0.00 | 0.00 | 32 | 1016.2 |
| 20260503150726 | 52 | 324 | 3.0 | 3.0 | 0.00 | 0.00 | 0.00 | 40 | 1017.2 |
| 20260503150222 | 51 | 294 | 5.0 | 6.0 | 0.00 | 0.00 | 0.00 | 38 | 1017.2 |
| 20260503090229 | 43 | 274 | 4.0 | 6.0 | 0.00 | 0.00 | 0.00 | 63 | 1014.3 |